Regional Weather Roundup
Issued by NWS

Home | Current Version | Previous Version | Text Only | Print | Product List | Glossary Off
Versions: 1 2 3 4 5 6 7 8 9 10 11 12 13 14 15 16 17 18 19 20 21 22 23 24 25 26 27 28 29 30 31 32 33 34 35 36 37 38 39 40 41 42 43 44 45 46 47 48 49 50

000
ASUS43 KTOP 250508
RWRKS

WEATHER ROUNDUP FOR KANSAS
NATIONAL WEATHER SERVICE GOODLAND KS
1200 AM CDT FRI APR 25 2014

NOTE:  "FAIR" INDICATES FEW OR NO CLOUDS BELOW 12,000 FEET WITH NO
SIGNIFICANT WEATHER AND/OR OBSTRUCTIONS TO VISIBILITY.

KSZ001>006-013>018-027>032-041>047-250600-
NORTHWEST KANSAS

CITY           SKY/WX    TMP DP  RH WIND       PRES   REMARKS
GOODLAND       PTCLDY    51  17  26 S8        29.91S
HAYS           CLEAR     48  32  53 SW5       29.88F
HILL CITY      CLEAR     46  36  68 W5        29.88F
RUSSELL        CLEAR     46  34  62 S13       29.87S
$$

KSZ061>065-074>080-084>089-250600-
SOUTHWEST KANSAS

CITY           SKY/WX    TMP DP  RH WIND       PRES   REMARKS
DODGE CITY     CLEAR     48  32  53 S8        29.94R
ELKHART          N/A     45  20  37 SE8         N/A
GARDEN CITY    CLEAR     49  23  36 SE9       29.92F
GREAT BEND     CLEAR     45  34  65 SW7       29.90S
LIBERAL        CLEAR     52  21  30 SE9       29.93F
PRATT          CLEAR     45  32  61 SW6       29.93S
$$

KSZ066>073-081>083-090>101-250600-
SOUTHEAST KANSAS

CITY           SKY/WX    TMP DP  RH WIND       PRES   REMARKS
CHANUTE        CLEAR     47  41  80 SW3       29.91S
COFFEYVILLE    CLEAR     48  42  80 CALM      29.92S
HUTCHINSON     CLEAR     43  36  76 CALM      29.90S
MEDICINE LODGE   N/A     49  37  63 CALM      29.92S
NEWTON         CLEAR     48  34  57 S8        29.93S
PARSONS        CLEAR     44  41  89 CALM      29.92S
WICHITA INTL   PTCLDY    48  37  66 S9        29.91S
WICHITA JABRA  CLEAR     51  38  60 S8        29.91S
WICHITA MCCONL CLEAR     50  40  67 S7        29.92S
WINFIELD       CLEAR     50  38  63 S3        29.94S
$$

KSZ007>012-019>026-033>040-048>060-102>105-250600-
NORTHEAST KANSAS

CITY           SKY/WX    TMP DP  RH WIND       PRES   REMARKS
CONCORDIA      CLEAR     55  33  43 S12       29.85F
EMPORIA        CLEAR     47  40  76 SW10      29.89S
LAWRENCE       CLEAR     43  42  97 CALM      29.87R
MANHATTAN      CLEAR     42  41  96 CALM      29.87S
OLATHE IND     CLEAR     49  43  80 SW6       29.88R
OLATHE EXE     CLEAR     50  43  77 W5        29.86R
SALINA         CLEAR     47  39  74 S8        29.88S
TOPEKA BILLARD CLEAR     47  45  93 CALM      29.87S FOG
TOPEKA FORBES  CLEAR     47  42  83 CALM      29.86S
$$



USA.gov is the U.S. government's official web portal to all federal, state and local government web resources and services.